EW9394 Weather Reports


time (UTC)temp
C
wind
direction
speed
KPH
gust
KPH
rain 1hr
cm
rain 24hr
cm
rain mn
cm
humidity
%
barometer
mb
20260510091242 22 341 4.8 11.3 0.00 0.00 0.00 90 1015.0
20260510090738 23 76 1.6 1.6 0.00 0.00 0.00 94 1014.6
20260510090236 23 99 0.0 1.6 0.00 0.00 0.00 94 1014.7
20260510085731 23 56 3.2 3.2 0.00 0.00 0.00 94 1014.3
20260510085226 23 351 1.6 1.6 0.00 0.00 0.00 93 1014.0
20260510084722 23 125 0.0 1.6 0.00 0.00 0.00 93 1013.5
20260510084219 23 67 1.6 1.6 0.00 0.00 0.00 93 1013.5
20260510083715 23 112 0.0 0.0 0.00 0.00 0.00 93 1013.5
20260510083213 23 108 1.6 1.6 0.00 0.00 0.00 93 1013.6
20260510082708 23 260 0.0 0.0 0.00 0.00 0.00 93 1013.7
20260510082205 23 294 1.6 3.2 0.00 0.00 0.00 93 1013.8
20260510081659 23 287 1.6 1.6 0.00 0.00 0.00 92 1013.7
20260510081155 23 286 1.6 3.2 0.00 0.00 0.00 92 1013.2
20260510080654 23 237 0.0 1.6 0.00 0.00 0.00 92 1013.1
20260510080152 23 194 0.0 0.0 0.00 0.00 0.00 91 1012.8
20260510075648 23 185 0.0 0.0 0.00 0.00 0.00 91 1012.6
20260510075146 23 185 0.0 0.0 0.00 0.00 0.00 90 1012.4
20260510074643 23 189 0.0 0.0 0.00 0.00 0.00 90 1012.2
20260510074138 23 190 0.0 0.0 0.00 0.00 0.00 90 1012.2
20260510073635 23 192 0.0 0.0 0.00 0.00 0.00 89 1012.1
20260510073132 23 191 0.0 0.0 0.00 0.00 0.00 89 1012.1
20260510072628 23 166 3.2 3.2 0.00 0.00 0.00 88 1011.7
20260510072124 24 160 1.6 3.2 0.00 0.00 0.00 87 1012.0
20260510071620 23 133 1.6 1.6 0.00 0.00 0.00 88 1012.0
20260510071118 23 112 0.0 0.0 0.00 0.00 0.00 88 1012.2
20260510070615 24 64 0.0 1.6 0.00 0.00 0.00 87 1012.6
20260510070113 24 8 0.0 0.0 0.00 0.00 0.00 86 1012.9
20260510065608 24 267 1.6 1.6 0.00 0.00 0.00 86 1013.1
20260510065105 24 273 1.6 3.2 0.00 0.00 0.00 85 1013.3
20260510064601 24 329 1.6 3.2 0.00 0.00 0.00 85 1013.3
20260510064058 24 291 1.6 1.6 0.00 0.00 0.00 85 1013.5
20260510063555 24 250 1.6 1.6 0.00 0.00 0.00 85 1013.4
20260510063052 24 250 0.0 1.6 0.00 0.00 0.00 85 1013.3
20260510062548 24 279 0.0 0.0 0.00 0.00 0.00 85 1013.1
20260510062043 24 352 3.2 3.2 0.00 0.00 0.00 85 1013.5
20260510061540 24 313 1.6 3.2 0.00 0.00 0.00 85 1013.2
20260510061037 23 153 1.6 1.6 0.00 0.00 0.00 85 1012.5
20260510060533 23 191 0.0 1.6 0.00 0.00 0.00 85 1012.0
20260510060029 23 143 1.6 1.6 0.00 0.00 0.00 85 1011.6
20260510055525 23 118 1.6 3.2 0.00 0.00 0.00 86 1011.3
20260510055024 24 151 1.6 1.6 0.00 0.00 0.00 85 1011.4
20260510054519 23 161 1.6 1.6 0.00 0.00 0.00 86 1011.4
20260510054014 23 103 4.8 4.8 0.00 0.00 0.00 86 1011.1
20260510053509 24 177 1.6 1.6 0.00 0.00 0.00 86 1011.2
20260510053006 24 169 1.6 1.6 0.00 0.00 0.00 85 1011.0
20260510052502 23 170 1.6 3.2 0.00 0.00 0.00 86 1010.8
20260510051958 24 119 4.8 4.8 0.00 0.00 0.00 85 1011.0
20260510051454 24 155 1.6 3.2 0.00 0.00 0.00 84 1011.2
20260510050951 24 153 3.2 4.8 0.00 0.00 0.00 84 1010.9
20260510050448 24 142 4.8 4.8 0.00 0.00 0.00 84 1011.0
20260510045945 24 131 1.6 3.2 0.00 0.00 0.00 84 1010.9
20260510045442 24 161 1.6 3.2 0.00 0.00 0.00 83 1010.7
20260510044939 24 137 3.2 4.8 0.00 0.00 0.00 82 1010.7
20260510044436 24 143 3.2 3.2 0.00 0.00 0.00 81 1010.6
20260510043932 25 106 3.2 4.8 0.00 0.00 0.00 80 1010.5
20260510043428 25 128 4.8 4.8 0.00 0.00 0.00 78 1010.6
20260510042927 25 140 3.2 3.2 0.00 0.00 0.00 77 1010.4
20260510042422 25 137 4.8 8.0 0.00 0.00 0.00 76 1010.5
20260510041918 25 156 3.2 3.2 0.00 0.00 0.00 74 1010.6
20260510041416 25 144 1.6 1.6 0.00 0.00 0.00 74 1010.8
20260510040913 25 154 0.0 0.0 0.00 0.00 0.00 74 1010.8
20260510040410 25 154 1.6 3.2 0.00 0.00 0.00 74 1010.8
20260510035905 25 165 1.6 1.6 0.00 0.00 0.00 73 1010.8
20260510035402 25 161 1.6 3.2 0.00 0.00 0.00 73 1011.0
20260510034856 25 161 1.6 1.6 0.00 0.00 0.00 72 1010.9
20260510034356 25 142 1.6 3.2 0.00 0.00 0.00 71 1010.8
20260510033851 25 168 0.0 0.0 0.00 0.00 0.00 72 1010.8
20260510033348 25 166 1.6 1.6 0.00 0.00 0.00 71 1010.6
20260510032844 25 164 1.6 1.6 0.00 0.00 0.00 71 1010.7
20260510032341 25 158 1.6 1.6 0.00 0.00 0.00 70 1010.8
20260510031837 25 163 0.0 1.6 0.00 0.00 0.00 70 1010.8
20260510031332 25 158 1.6 3.2 0.00 0.00 0.00 71 1010.8
20260510030832 25 167 0.0 0.0 0.00 0.00 0.00 71 1010.7
20260510030329 25 172 0.0 0.0 0.00 0.00 0.00 71 1010.8
20260510025826 25 150 0.0 0.0 0.00 0.00 0.00 71 1010.8
20260510025324 25 150 0.0 0.0 0.00 0.00 0.00 70 1010.8
20260510024820 25 151 0.0 0.0 0.00 0.00 0.00 70 1010.9
20260510024318 26 145 0.0 0.0 0.00 0.00 0.00 70 1010.8
20260510023814 26 146 0.0 0.0 0.00 0.00 0.00 69 1010.8
20260510023310 26 129 1.6 1.6 0.00 0.00 0.00 68 1010.8
20260510022807 26 126 0.0 1.6 0.00 0.00 0.00 68 1010.6
20260510022307 26 141 0.0 1.6 0.00 0.00 0.00 68 1010.3
20260510021806 26 141 0.0 1.6 0.00 0.00 0.00 67 1010.5
20260510021304 26 117 0.0 0.0 0.00 0.00 0.00 66 1010.6
20260510020800 26 114 1.6 1.6 0.00 0.00 0.00 66 1010.2
20260510020300 26 135 1.6 1.6 0.00 0.00 0.00 66 1010.4
20260510015756 26 137 0.0 1.6 0.00 0.00 0.00 65 1010.2
20260510015252 27 127 0.0 1.6 0.00 0.00 0.00 64 1010.3
20260510014747 27 104 1.6 1.6 0.00 0.00 0.00 63 1010.2
20260510014245 27 125 1.6 1.6 0.00 0.00 0.00 63 1010.4
20260510013741 27 103 1.6 1.6 0.00 0.00 0.00 62 1010.3
20260510013236 27 115 0.0 1.6 0.00 0.00 0.00 61 1010.0
20260510012731 27 93 1.6 1.6 0.00 0.00 0.00 61 1010.0
20260510012227 27 131 0.0 0.0 0.00 0.00 0.00 61 1009.9
20260510011727 27 148 0.0 0.0 0.00 0.00 0.00 60 1009.7
20260510011222 28 130 0.0 1.6 0.00 0.00 0.00 58 1009.8
20260510010719 28 97 3.2 3.2 0.00 0.00 0.00 58 1009.6
20260510010216 28 90 1.6 1.6 0.00 0.00 0.00 57 1009.7
20260510005713 28 116 0.0 0.0 0.00 0.00 0.00 56 1009.7
20260510005209 28 78 1.6 1.6 0.00 0.00 0.00 55 1009.5
20260510004707 28 99 1.6 1.6 0.00 0.00 0.00 55 1009.5
20260510004204 28 145 0.0 1.6 0.00 0.00 0.00 54 1009.7
20260510003702 29 90 1.6 1.6 0.00 0.00 0.00 53 1009.7
20260510003158 29 75 1.6 1.6 0.00 0.00 0.00 51 1009.5
20260510002657 29 67 1.6 3.2 0.00 0.00 0.00 51 1009.4
20260510002155 29 107 0.0 1.6 0.00 0.00 0.00 50 1009.6
20260510001651 30 117 1.6 1.6 0.00 0.00 0.00 50 1009.5
20260510001150 30 110 1.6 1.6 0.00 0.00 0.00 50 1009.6
20260510000650 30 109 1.6 1.6 0.00 0.00 0.00 51 1009.7
20260510000148 30 140 1.6 3.2 0.00 0.00 0.00 51 1009.6
20260509235644 30 135 0.0 1.6 0.00 0.00 0.00 51 1009.6
20260509235141 30 79 1.6 1.6 0.00 0.00 0.00 50 1009.5
20260509234637 30 146 0.0 0.0 0.00 0.00 0.00 51 1009.4
20260509234135 30 166 0.0 1.6 0.00 0.00 0.00 50 1009.4
20260509233633 30 187 0.0 0.0 0.00 0.00 0.00 51 1009.7
20260509233130 30 158 1.6 3.2 0.00 0.00 0.00 50 1009.7
20260509232626 30 167 0.0 1.6 0.00 0.00 0.00 49 1009.7
20260509232123 30 162 0.0 1.6 0.00 0.00 0.00 51 1009.5
20260509231619 30 165 0.0 0.0 0.00 0.00 0.00 50 1009.6
20260509231117 31 307 6.4 8.0 0.00 0.00 0.00 49 1009.6
20260509230614 31 299 3.2 3.2 0.00 0.00 0.00 50 1009.5
20260509230111 30 156 1.6 1.6 0.00 0.00 0.00 51 1009.6
20260509225607 30 140 0.0 1.6 0.00 0.00 0.00 51 1009.7
20260509225102 31 84 0.0 1.6 0.00 0.00 0.00 51 1009.7
20260509224557 31 88 1.6 1.6 0.00 0.00 0.00 51 1009.4
20260509224055 31 78 0.0 1.6 0.00 0.00 0.00 51 1009.5
20260509223552 30 96 1.6 1.6 0.00 0.00 0.00 52 1009.7
20260509223049 31 169 1.6 3.2 0.00 0.00 0.00 51 1009.6
20260509222545 31 112 6.4 8.0 0.00 0.00 0.00 50 1009.5
20260509222041 31 186 0.0 0.0 0.00 0.00 0.00 53 1009.2
20260509221537 31 125 1.6 1.6 0.00 0.00 0.00 54 1009.5
20260509221033 30 128 3.2 3.2 0.00 0.00 0.00 55 1009.1
20260509220529 31 68 1.6 1.6 0.00 0.00 0.00 53 1009.5
20260509220026 31 156 0.0 1.6 0.00 0.00 0.00 52 1009.5
20260509215521 31 84 1.6 1.6 0.00 0.00 0.00 53 1009.5
20260509215019 31 129 1.6 1.6 0.00 0.00 0.00 54 1009.7
20260509214516 31 113 1.6 1.6 0.00 0.00 0.00 52 1009.5
20260509214013 32 239 0.0 1.6 0.00 0.00 0.00 52 1009.7
20260509213509 31 72 1.6 3.2 0.00 0.00 0.00 53 1009.7
20260509213006 31 78 1.6 1.6 0.00 0.00 0.00 54 1009.9
20260509212503 31 186 0.0 1.6 0.00 0.00 0.00 54 1009.8
20260509211959 31 230 0.0 0.0 0.00 0.00 0.00 54 1009.9
20260509211455 31 140 0.0 1.6 0.00 0.00 0.00 54 1010.0
20260509210952 31 98 3.2 4.8 0.00 0.00 0.00 55 1010.1
20260509210448 31 57 3.2 4.8 0.00 0.00 0.00 54 1010.1
20260509205944 31 88 0.0 1.6 0.00 0.00 0.00 54 1010.1
20260509205439 31 165 0.0 0.0 0.00 0.00 0.00 56 1010.0
20260509204935 31 131 1.6 1.6 0.00 0.00 0.00 56 1010.4
20260509204426 31 133 0.0 1.6 0.00 0.00 0.00 57 1010.3
20260509203923 30 143 1.6 1.6 0.00 0.00 0.00 56 1010.4
20260509203418 31 105 3.2 4.8 0.00 0.00 0.00 58 1010.6
20260509202916 31 105 3.2 3.2 0.00 0.00 0.00 56 1010.4
20260509202412 31 166 3.2 3.2 0.00 0.00 0.00 57 1010.5
20260509201907 31 64 1.6 1.6 0.00 0.00 0.00 59 1010.7
20260509201402 30 85 1.6 3.2 0.00 0.00 0.00 60 1010.9
20260509200900 31 150 0.0 1.6 0.00 0.00 0.00 57 1010.8
20260509200359 31 79 1.6 3.2 0.00 0.00 0.00 58 1010.5
20260509195857 30 88 0.0 1.6 0.00 0.00 0.00 60 1010.6
20260509195356 30 68 0.0 1.6 0.00 0.00 0.00 61 1010.7
20260509194851 31 169 1.6 1.6 0.00 0.00 0.00 58 1010.9
20260509194347 31 90 1.6 3.2 0.00 0.00 0.00 58 1011.0
20260509193844 31 103 1.6 3.2 0.00 0.00 0.00 59 1011.0
20260509193344 31 155 0.0 1.6 0.00 0.00 0.00 60 1011.0
20260509192840 30 247 3.2 3.2 0.00 0.00 0.00 60 1010.8
20260509192336 31 267 3.2 3.2 0.00 0.00 0.00 59 1010.9
20260509191832 31 20 3.2 8.0 0.00 0.00 0.00 61 1011.1
20260509191328 30 210 4.8 8.0 0.00 0.00 0.00 62 1011.1
20260509190824 30 357 4.8 8.0 0.00 0.00 0.00 63 1011.2
20260509190321 30 253 1.6 1.6 0.00 0.00 0.00 65 1011.1
20260509185818 30 83 0.0 0.0 0.00 0.00 0.00 64 1011.2
20260509185314 30 131 1.6 1.6 0.00 0.00 0.00 64 1011.3
20260509184812 30 273 3.2 3.2 0.00 0.00 0.00 63 1011.3
20260509184309 30 248 0.0 1.6 0.00 0.00 0.00 64 1011.3
20260509183806 30 187 0.0 1.6 0.00 0.00 0.00 65 1011.2
20260509183301 30 308 4.8 8.0 0.00 0.00 0.00 64 1011.4
20260509182756 30 182 0.0 1.6 0.00 0.00 0.00 65 1011.3
20260509182254 28 243 0.0 0.0 0.00 0.00 0.00 67 1011.2
20260509181751 30 311 8.0 11.3 0.00 0.00 0.00 63 1011.3
20260509181249 30 6 1.6 3.2 0.00 0.00 0.00 64 1011.6
20260509180746 30 289 1.6 3.2 0.00 0.00 0.00 67 1011.6
20260509180242 28 291 3.2 4.8 0.00 0.00 0.00 67 1011.7
20260509175739 28 217 1.6 3.2 0.00 0.00 0.00 68 1011.8
20260509175235 29 11 6.4 9.7 0.00 0.00 0.00 66 1011.6
20260509174731 29 166 0.0 1.6 0.00 0.00 0.00 66 1011.8
20260509174226 29 21 1.6 3.2 0.00 0.00 0.00 67 1011.7
20260509173723 28 52 1.6 1.6 0.00 0.00 0.00 68 1011.8
20260509173219 28 162 3.2 4.8 0.00 0.00 0.00 67 1011.8
20260509172715 28 44 1.6 3.2 0.00 0.00 0.00 68 1011.8
20260509172211 28 242 1.6 1.6 0.00 0.00 0.00 69 1012.1
20260509171707 28 331 1.6 3.2 0.00 0.00 0.00 68 1011.9
20260509171203 27 55 1.6 3.2 0.00 0.00 0.00 69 1012.2
20260509170700 27 312 4.8 4.8 0.00 0.00 0.00 69 1012.1
20260509170156 28 17 6.4 9.7 0.00 0.00 0.00 69 1012.2
20260509165655 28 258 1.6 1.6 0.00 0.00 0.00 71 1012.0
20260509165150 27 320 4.8 8.0 0.00 0.00 0.00 70 1012.0
20260509164646 27 305 3.2 3.2 0.00 0.00 0.00 71 1012.1
20260509164142 27 256 1.6 3.2 0.00 0.00 0.00 71 1012.2
20260509163640 27 147 1.6 1.6 0.00 0.00 0.00 73 1012.2
20260509163136 26 1 1.6 3.2 0.00 0.00 0.00 74 1012.2
20260509162633 26 259 1.6 1.6 0.00 0.00 0.00 75 1012.1
20260509162129 26 296 4.8 4.8 0.00 0.00 0.00 74 1012.3
20260509161625 26 295 3.2 3.2 0.00 0.00 0.00 75 1012.0
20260509161120 26 270 6.4 8.0 0.00 0.00 0.00 75 1012.0
20260509160617 26 285 3.2 4.8 0.00 0.00 0.00 76 1012.3
20260509160112 26 245 0.0 1.6 0.00 0.00 0.00 76 1012.3
20260509155608 26 335 1.6 1.6 0.00 0.00 0.00 77 1012.0
20260509155105 25 352 6.4 9.7 0.00 0.00 0.00 77 1012.1
20260509154600 25 13 6.4 8.0 0.00 0.00 0.00 77 1012.1
20260509154058 25 284 3.2 4.8 0.00 0.00 0.00 78 1012.0
20260509153555 25 17 6.4 9.7 0.00 0.00 0.00 79 1012.0
20260509153052 25 334 3.2 4.8 0.00 0.00 0.00 79 1012.0
20260509152548 25 270 4.8 8.0 0.00 0.00 0.00 78 1012.0
20260509152045 25 272 1.6 1.6 0.00 0.00 0.00 79 1011.8
20260509151541 25 280 4.8 8.0 0.00 0.00 0.00 80 1012.0
20260509151039 25 64 3.2 4.8 0.00 0.00 0.00 80 1012.0
20260509150536 24 131 1.6 1.6 0.00 0.00 0.00 81 1012.0
20260509150035 25 302 3.2 4.8 0.00 0.00 0.00 79 1012.2
20260509145530 25 304 4.8 8.0 0.00 0.00 0.00 80 1012.1
20260509145025 24 286 4.8 8.0 0.00 0.00 0.00 81 1012.0
20260509144523 24 329 4.8 4.8 0.00 0.00 0.00 82 1012.3
20260509144020 23 278 4.8 4.8 0.00 0.00 0.00 84 1012.4
20260509143517 23 261 3.2 3.2 0.00 0.00 0.00 85 1012.0
20260509143015 23 335 6.4 8.0 0.00 0.00 0.00 85 1012.2
20260509142510 23 285 4.8 4.8 0.00 0.00 0.00 85 1011.9
20260509142005 23 259 1.6 1.6 0.00 0.00 0.00 86 1011.9
20260509141502 23 254 0.0 0.0 0.00 0.00 0.00 86 1012.0
20260509140959 23 291 4.8 4.8 0.00 0.00 0.00 86 1011.9
20260509140455 22 228 1.6 1.6 0.00 0.00 0.00 88 1011.8
20260509135954 22 290 6.4 9.7 0.00 0.00 0.00 89 1011.8
20260509135451 22 322 3.2 4.8 0.00 0.00 0.00 89 1011.7
20260509134948 22 285 3.2 3.2 0.00 0.00 0.00 90 1011.8
20260509134445 22 300 1.6 3.2 0.00 0.00 0.00 90 1011.8
20260509133943 22 336 8.0 11.3 0.00 0.00 0.00 91 1011.7
20260509133439 21 274 4.8 4.8 0.00 0.00 0.00 92 1011.6
20260509132937 21 326 4.8 4.8 0.00 0.00 0.00 93 1011.6
20260509132435 21 285 1.6 3.2 0.00 0.00 0.00 93 1011.4
20260509131932 21 282 4.8 9.7 0.00 0.00 0.00 94 1011.5
20260509131429 21 273 8.0 9.7 0.00 0.00 0.00 95 1011.4
20260509130926 21 301 4.8 4.8 0.00 0.00 0.00 95 1011.6
20260509130421 21 318 1.6 3.2 0.00 0.00 0.00 96 1011.6
20260509125918 21 249 1.6 3.2 0.00 0.00 0.00 96 1011.5
20260509125415 20 284 1.6 1.6 0.00 0.00 0.00 97 1011.4
20260509124911 20 272 4.8 4.8 0.00 0.00 0.00 97 1011.5
20260509124408 20 294 1.6 4.8 0.00 0.00 0.00 98 1011.3
20260509123906 20 250 0.0 0.0 0.00 0.00 0.00 98 1011.6
20260509123403 20 233 0.0 0.0 0.00 0.00 0.00 98 1011.3
20260509122858 20 188 0.0 0.0 0.00 0.00 0.00 98 1011.4
20260509122355 20 188 0.0 0.0 0.00 0.00 0.00 98 1011.5
20260509121852 20 187 0.0 0.0 0.00 0.00 0.00 98 1011.6
20260509121349 20 187 0.0 0.0 0.00 0.00 0.00 97 1011.3
20260509120848 20 187 0.0 0.0 0.00 0.00 0.00 97 1011.5
20260509120345 20 187 0.0 0.0 0.00 0.00 0.00 97 1011.5
20260509115843 20 187 0.0 0.0 0.00 0.00 0.00 97 1011.5
20260509115340 20 187 0.0 0.0 0.00 0.00 0.00 97 1011.6
20260509114838 20 187 0.0 0.0 0.00 0.00 0.00 97 1011.3
20260509114336 20 187 0.0 0.0 0.00 0.00 0.00 96 1011.0
20260509113835 20 186 0.0 0.0 0.00 0.00 0.00 96 1011.0
20260509113331 20 188 0.0 0.0 0.00 0.00 0.00 96 1011.1
20260509112828 20 189 0.0 0.0 0.00 0.00 0.00 96 1010.8
20260509112325 20 189 0.0 0.0 0.00 0.00 0.00 96 1010.7
20260509111822 20 188 0.0 0.0 0.00 0.00 0.00 95 1010.7
20260509111319 20 188 0.0 0.0 0.00 0.00 0.00 95 1010.7
20260509110817 21 181 1.6 1.6 0.00 0.00 0.00 95 1010.5
20260509110313 21 190 1.6 1.6 0.00 0.00 0.00 95 1010.6
20260509105811 21 191 1.6 1.6 0.00 0.00 0.00 95 1010.4
20260509105309 21 195 0.0 0.0 0.00 0.00 0.00 95 1010.4
20260509104805 21 197 0.0 0.0 0.00 0.00 0.00 95 1010.4
20260509104302 21 196 0.0 0.0 0.00 0.00 0.00 95 1010.5
20260509103800 21 196 0.0 0.0 0.00 0.00 0.00 95 1010.5
20260509103257 21 196 0.0 0.0 0.00 0.00 0.00 95 1010.6
20260509102756 21 196 0.0 0.0 0.00 0.00 0.00 95 1010.7
20260509102253 21 197 0.0 0.0 0.00 0.00 0.00 95 1010.6
20260509101749 21 197 0.0 0.0 0.00 0.00 0.00 95 1010.4
20260509101245 21 240 0.0 0.0 0.00 0.00 0.00 95 1010.3
20260509100742 21 245 0.0 0.0 0.00 0.00 0.00 95 1010.4
20260509100240 21 246 0.0 0.0 0.00 0.00 0.00 95 1010.3
20260509095736 21 237 0.0 0.0 0.00 0.00 0.00 95 1010.4
20260509095234 20 234 0.0 0.0 0.00 0.00 0.00 95 1010.4
20260509094731 20 234 0.0 0.0 0.00 0.00 0.00 95 1010.0
20260509094227 20 234 0.0 0.0 0.00 0.00 0.00 95 1010.0
20260509093725 20 234 0.0 0.0 0.00 0.00 0.00 95 1010.0
20260509093222 20 235 0.0 0.0 0.00 0.00 0.00 95 1009.8
20260509092720 20 219 0.0 0.0 0.00 0.00 0.00 95 1009.7
20260509092218 20 181 0.0 0.0 0.00 0.00 0.00 95 1009.2
20260509091716 20 154 3.2 3.2 0.00 0.00 0.00 95 1008.9